Tiempo cada hora Czyrna

Hoy, 4 Agosto, Miércoles

Tiempo Temperatura Precipitaciones Viento Presión Humedad
00:00 +14°C° 0 mm 1 mps 714 mmHg 84%
01:00 +13°C° 0 mm 1 mps 714 mmHg 86%
02:00 +13°C° 0 mm 1 mps 714 mmHg 86%
03:00 +13°C° 0 mm 1 mps 714 mmHg 85%
04:00 +13°C° 0 mm 1 mps 713 mmHg 85%
05:00 +14°C° 0 mm 1 mps 714 mmHg 81%
06:00 +16°C° 0 mm 1 mps 714 mmHg 77%
07:00 +18°C° 0 mm 1 mps 714 mmHg 73%
08:00 +19°C° 0.1 mm 1 mps 714 mmHg 70%
09:00 +21°C° 0.1 mm 1 mps 715 mmHg 66%
10:00 +22°C° 0.1 mm 1 mps 715 mmHg 63%
11:00 +21°C° 0.4 mm 1 mps 714 mmHg 66%
12:00 +21°C° 0.4 mm 1 mps 714 mmHg 70%
13:00 +20°C° 0.4 mm 2 mps 714 mmHg 73%
14:00 +20°C° 0.4 mm 2 mps 714 mmHg 75%
15:00 +21°C° 0.4 mm 1 mps 714 mmHg 77%
16:00 +21°C° 0.4 mm 1 mps 713 mmHg 79%
17:00 +20°C° 0.1 mm 1 mps 713 mmHg 83%
18:00 +19°C° 0.1 mm 1 mps 713 mmHg 88%
19:00 +16°C° 0.1 mm 1 mps 713 mmHg 93%
20:00 +16°C° 0 mm 1 mps 713 mmHg 93%
21:00 +15°C° 0 mm 1 mps 713 mmHg 94%
22:00 +15°C° 0 mm 1 mps 713 mmHg 95%
23:00 +15°C° 0 mm 1 mps 713 mmHg 95%

Mañana, 5 Agosto, Jueves

Tiempo Temperatura Precipitaciones Viento Presión Humedad
00:00 +15°C° 0 mm 1 mps 712 mmHg 95%
01:00 +14°C° 0 mm 0 mps 712 mmHg 95%
02:00 +14°C° 0.1 mm 0 mps 712 mmHg 96%
03:00 +15°C° 0.1 mm 1 mps 712 mmHg 96%
04:00 +15°C° 0.1 mm 1 mps 711 mmHg 97%
05:00 +15°C° 0 mm 1 mps 711 mmHg 97%
06:00 +15°C° 0 mm 1 mps 711 mmHg 96%
07:00 +16°C° 0 mm 1 mps 711 mmHg 96%
08:00 +16°C° 0 mm 1 mps 711 mmHg 93%
09:00 +18°C° 0 mm 1 mps 711 mmHg 91%
10:00 +19°C° 0 mm 1 mps 711 mmHg 88%
11:00 +19°C° 0.2 mm 1 mps 710 mmHg 90%
12:00 +18°C° 0.2 mm 1 mps 710 mmHg 91%
13:00 +17°C° 0.2 mm 2 mps 710 mmHg 92%
14:00 +18°C° 0.1 mm 1 mps 709 mmHg 93%
15:00 +18°C° 0.1 mm 1 mps 709 mmHg 94%
16:00 +18°C° 0.1 mm 1 mps 709 mmHg 94%
17:00 +17°C° 1.9 mm 2 mps 708 mmHg 96%
18:00 +17°C° 1.9 mm 2 mps 708 mmHg 97%
19:00 +16°C° 1.9 mm 2 mps 707 mmHg 98%
20:00 +16°C° 2 mm 2 mps 707 mmHg 99%
21:00 +16°C° 2 mm 2 mps 707 mmHg 99%
22:00 +16°C° 2 mm 2 mps 707 mmHg 99%
23:00 +16°C° 0.6 mm 2 mps 707 mmHg 98%

Pasado mañana, 6 Agosto, Viernes

Tiempo Temperatura Precipitaciones Viento Presión Humedad
00:00 +16°C° 0.6 mm 1 mps 706 mmHg 98%
01:00 +16°C° 0.6 mm 1 mps 706 mmHg 98%
02:00 +15°C° 0 mm 1 mps 706 mmHg 98%
03:00 +15°C° 0 mm 1 mps 706 mmHg 98%
04:00 +14°C° 0 mm 1 mps 706 mmHg 98%
05:00 +15°C° 0 mm 1 mps 706 mmHg 97%
06:00 +15°C° 0 mm 1 mps 707 mmHg 96%
07:00 +16°C° 0 mm 1 mps 707 mmHg 95%
08:00 +15°C° 0.5 mm 1 mps 707 mmHg 95%
09:00 +15°C° 0.5 mm 1 mps 708 mmHg 94%
10:00 +15°C° 0.5 mm 2 mps 708 mmHg 94%
11:00 +16°C° 0.4 mm 2 mps 708 mmHg 91%
12:00 +16°C° 0.4 mm 2 mps 708 mmHg 89%
13:00 +16°C° 0.4 mm 2 mps 709 mmHg 87%
14:00 +17°C° 0 mm 3 mps 709 mmHg 80%
15:00 +19°C° 0 mm 3 mps 709 mmHg 73%
16:00 +20°C° 0 mm 4 mps 709 mmHg 66%
17:00 +18°C° 0 mm 3 mps 709 mmHg 75%
18:00 +16°C° 0 mm 2 mps 709 mmHg 83%
19:00 +15°C° 0 mm 1 mps 710 mmHg 92%
20:00 +14°C° 0 mm 1 mps 710 mmHg 93%
21:00 +13°C° 0 mm 1 mps 710 mmHg 94%
22:00 +12°C° 0 mm 0 mps 711 mmHg 95%
23:00 +13°C° 0 mm 1 mps 711 mmHg 95%

7 Agosto, Sábado

Tiempo Temperatura Precipitaciones Viento Presión Humedad
00:00 +12°C° 0 mm 1 mps 711 mmHg 95%
01:00 +12°C° 0 mm 1 mps 711 mmHg 95%
02:00 +12°C° 0 mm 1 mps 711 mmHg 95%
03:00 +12°C° 0 mm 1 mps 711 mmHg 95%
04:00 +12°C° 0 mm 1 mps 711 mmHg 94%
05:00 +14°C° 0 mm 1 mps 711 mmHg 89%
06:00 +15°C° 0 mm 1 mps 712 mmHg 84%
07:00 +18°C° 0 mm 1 mps 712 mmHg 78%
08:00 +20°C° 0 mm 1 mps 712 mmHg 70%
09:00 +22°C° 0 mm 1 mps 713 mmHg 62%
10:00 +24°C° 0 mm 1 mps 713 mmHg 53%
11:00 +25°C° 0 mm 1 mps 713 mmHg 50%
12:00 +26°C° 0 mm 2 mps 713 mmHg 47%
13:00 +27°C° 0 mm 2 mps 713 mmHg 44%
14:00 +27°C° 0 mm 2 mps 713 mmHg 45%
15:00 +27°C° 0 mm 2 mps 713 mmHg 46%
16:00 +27°C° 0 mm 2 mps 713 mmHg 48%
17:00 +25°C° 0 mm 2 mps 713 mmHg 57%
18:00 +21°C° 0 mm 2 mps 713 mmHg 67%
19:00 +19°C° 0 mm 2 mps 713 mmHg 77%
20:00 +18°C° 0 mm 2 mps 713 mmHg 78%
21:00 +18°C° 0 mm 2 mps 713 mmHg 79%
22:00 +17°C° 0 mm 2 mps 713 mmHg 80%
23:00 +16°C° 0 mm 2 mps 713 mmHg 81%

8 Agosto, Domingo

Tiempo Temperatura Precipitaciones Viento Presión Humedad
00:00 +16°C° 0 mm 2 mps 713 mmHg 82%
01:00 +15°C° 0 mm 2 mps 712 mmHg 83%
02:00 +15°C° 0 mm 2 mps 712 mmHg 83%
03:00 +15°C° 0 mm 2 mps 712 mmHg 84%
04:00 +15°C° 0 mm 2 mps 713 mmHg 84%
05:00 +17°C° 0 mm 2 mps 713 mmHg 78%
06:00 +18°C° 0 mm 3 mps 713 mmHg 73%
07:00 +20°C° 0 mm 3 mps 713 mmHg 68%
08:00 +22°C° 0 mm 3 mps 714 mmHg 62%
09:00 +24°C° 0 mm 3 mps 714 mmHg 56%
10:00 +26°C° 0 mm 3 mps 714 mmHg 50%
11:00 +26°C° 0 mm 3 mps 715 mmHg 51%
12:00 +26°C° 0 mm 3 mps 715 mmHg 53%
13:00 +27°C° 0 mm 3 mps 715 mmHg 54%
14:00 +26°C° 0 mm 3 mps 715 mmHg 58%
15:00 +25°C° 0 mm 2 mps 716 mmHg 63%
16:00 +25°C° 0 mm 2 mps 716 mmHg 67%
17:00 +23°C° 0.1 mm 2 mps 716 mmHg 75%
18:00 +20°C° 0.1 mm 2 mps 716 mmHg 82%
19:00 +20°C° 0.1 mm 1 mps 716 mmHg 90%
20:00 +19°C° 0.5 mm 1 mps 716 mmHg 92%
21:00 +19°C° 0.5 mm 1 mps 717 mmHg 94%
22:00 +18°C° 0.5 mm 1 mps 717 mmHg 95%
23:00 +18°C° 0.4 mm 1 mps 717 mmHg 96%

9 Agosto, Lunes

Tiempo Temperatura Precipitaciones Viento Presión Humedad
00:00 +18°C° 0.4 mm 1 mps 717 mmHg 96%
01:00 +16°C° 0.4 mm 1 mps 717 mmHg 96%
02:00 +16°C° 0.1 mm 1 mps 717 mmHg 96%
03:00 +16°C° 0.1 mm 1 mps 717 mmHg 95%
04:00 +16°C° 0.1 mm 1 mps 717 mmHg 95%
05:00 +18°C° 0 mm 1 mps 717 mmHg 93%
06:00 +19°C° 0 mm 1 mps 718 mmHg 90%
07:00 +20°C° 0 mm 1 mps 718 mmHg 88%
08:00 +21°C° 0 mm 1 mps 718 mmHg 80%
09:00 +23°C° 0 mm 2 mps 719 mmHg 71%
10:00 +24°C° 0 mm 2 mps 719 mmHg 63%
11:00 +25°C° 0 mm 2 mps 719 mmHg 61%
12:00 +25°C° 0 mm 2 mps 719 mmHg 59%
13:00 +26°C° 0 mm 2 mps 718 mmHg 56%
14:00 +25°C° 0 mm 2 mps 718 mmHg 58%
15:00 +25°C° 0 mm 2 mps 718 mmHg 60%
16:00 +25°C° 0 mm 2 mps 718 mmHg 62%
17:00 +23°C° 0 mm 2 mps 718 mmHg 69%
18:00 +22°C° 0 mm 1 mps 718 mmHg 76%
19:00 +20°C° 0 mm 1 mps 717 mmHg 84%
20:00 +19°C° 0 mm 1 mps 717 mmHg 85%
21:00 +19°C° 0 mm 1 mps 717 mmHg 86%
22:00 +18°C° 0 mm 1 mps 717 mmHg 87%
23:00 +18°C° 0 mm 1 mps 717 mmHg 86%
Mostrar más

Necesitamos Su Consentimiento

Meteoprog y nuestros Proveedores de Servicios pueden almacenar y acceder a sus datos personales como cookies, identificadores de dispositivo u otras tecnologías similares de su dispositivo y procesar dichos datos para personalizar contenido y anuncios, además de ofrecer funciones de redes sociales y analizar el tráfico.

  • Almacenar y/o acceder a información en su dispositivo

    Se puede almacenar o acceder a cookies, identificadores de dispositivo u otra información de su dispositivo para los fines anteriormente indicados.

  • Anuncios y contenido personalizados, medición de anuncios y contenido, percepciones del público, y desarrollo de productos

    Los anuncios y el contenido pueden personalizarse en base a su perfil. Se pueden añadir más datos para personalizar mejor los anuncios y contenidos. Se puede medir el rendimiento de los anuncios y contenidos. Se puede obtener la percepción sobre el público que ha visto los anuncios y contenidos. Dichos datos pueden usarse para desarrollar o mejorar la experiencia del usuario, sistemas y software.

Al hacer clic en ‘Estoy De Acuerdo’ usted permitirá el uso de las cookies, identificadores de dispositivo, balizas web u otras tecnologías similares indicadas. Su configuración puede cambiarse desde el navegador de su dispositivo.

Para ciertos fines, los intereses legítimos pueden ser considerados por encima del consentimiento. Puede leer más sobre ello en nuestra Política de Privacidad y Cookies.